Location: Le Domaine
(47.0333°N, 76.5361°W)
Time: 15:56:07
(UTC-05:00)

Courier 1B Rocket - Pass Details

Date: 24 November 2019
Orbit: 920 x 1202 km, 28.2° (Epoch: 10 December)

Event Time Altitude Azimuth Distance (km) Brightness Sun altitude
Rises 17:13:47 0° 244° (WSW) 3,837 10.5 -8.6°
Reaches altitude 10° 17:19:53 10° 205° (SSW) 2,970 8.2 -9.6°
Maximum altitude 17:20:45 10° 198° (SSW) 2,964 8.1 -9.7°
Drops below altitude 10° 17:21:38 10° 191° (S) 2,992 8.0 -9.9°
Sets 17:28:01 0° 152° (SSE) 4,025 8.1 -10.9°
